THOR ABLESTAR DEB, 136

Orbit data source: Space-Track

THOR ABLESTAR DEB, 136 is space debris in LEO originally from a launch on Thu, 29 Jun 1961 UTC launched from the Air Force Eastern Test Range (AFETR). Debris objects in space refer to the collection of defunct objects orbiting the Earth. Examples of debris include non-operational satellites, rocket bodies, and fragments generated from explosions, collisions, or faulty payload assembly.

Loading next visibility...
Identifier
136, 1961-015W
Orbit
LEO
Last TLE update
2 days ago
Origin
Manufacturer
Unknown
Mission
Spacecraft
Bus & Motor
Unknown
Mass
Unknown
Launch date (UTC)
1961-06-29 (64 years ago)
Launch vehicle
Unknown
Launch site
Air Force Eastern Test Range (AFETR)
Object type
Payload
Rocket body
Debris
Shape & HBR
Unknown
Radar Cross Section
Small (<0.1 m²)

Expand to show TLE details & history

TLE from 2 days ago
0 THOR ABLESTAR DEB
1 00136U 61015W   25107.94674863  .00003534  00000-0  11240-2 0  9990
2 00136  67.5293 295.4681 0043704  58.3682 302.1681 14.40364908295487
Epoch: 2025-04-17T22:43Z
Definitive object data (Epoch: 2025-04-17T22:43:19.081Z)
Latitude
-0.00001°
Longitude
108.32724°
Altitude
742.967 km
Speed
7.492 km/s
True Right ascension
19h 41m 52s
True Declination
0° 00' 00"
Sunlit
Object was in daylight at TLE epoch
Visualization TLE readout
Latitude
51.21438°
Longitude
-107.34359°
Altitude
751.903 km
Speed
7.491 km/s
Apparent Right ascension
10h 49m 27s
Apparent Declination
28° 51' 60"
Sunlit
Object is in daylight
Visualization observer readout
Local Sidereal Time
03:09:08
Azimuth
52.508° ENE
Elevation
1.437°
Doppler factor
1
Orbital elements
Apogee altitude
786.741 km
Perigee altitude
724.387 km
Semi-major axis
7,133.701 km
Eccentricity
0.0043704
Inclination
67.5293°
RAAN
295.4681°
Arg. of periapsis
58.3682°
True anomaly
301.74294°
Mean anomaly
302.1681°
Eccentric anomaly
301.95564°
Mean motion
3.60222 °/min
BSTAR
0.001124
Orbital period
99.94 mins
Loading maneuver chart data...
Loading SW <> Apogee altitude chart data...

THOR ABLESTAR DEB Visibility forecast

Observer location: undefined°, undefined°

Span
Click to sort rows by Start time (UTC) header in descending order
Start Az.
Max El. time (UTC)
Max El. Az.
Max El.
End time (UTC)
End Az.
7 mins2025-04-19 21:54:52.899Z359.645° N2025-04-19 21:58:52.899Z56.959° ENE22.636°2025-04-19 22:01:52.899Z98.728° ESE
8 mins2025-04-19 23:37:52.899Z312.592° NW2025-04-19 23:40:52.899Z263.362° W34.618°2025-04-19 23:45:52.899Z178.321° S
5 mins2025-04-20 12:31:52.899Z136.436° SSE2025-04-20 12:33:52.899Z104.675° ESE20.331°2025-04-20 12:36:52.899Z63.144° ENE
7 mins2025-04-20 14:12:52.899Z239.797° WSW2025-04-20 14:15:52.899Z297.594° NW34.714°2025-04-20 14:19:52.899Z11.231° NNE
|